星链-36457(STARLINK-36457)

导读

STARLINK-36457是美国星链计划的卫星,星链项目旨在构建全球卫星互联网星座,该卫星于2026年1月9日发射。作为低轨星座成员,它承担着为全球偏远地区、网络覆盖薄弱区域提供高速宽带互联网接入服务的任务,进一步扩充了星链星座的服务覆盖范围与通信容量。

Basic Information
目录编号:
67349
目录名称:
STARLINK-36457
国际标识:
2026-003R
轨道中心:
EARTH
卫星名称:
星链-36457
卫星全名:
星链-36457(STARLINK-36457)
卫星状态:
在轨 (已飞行238 天)
发射日期:
2026-01-09 UTC
国别 :
美国 (US)
星等 :
--
Orbit Information
数据来源 国际轨道数据
星历时间: 2026-09-03T13:01:25+0800
1天前
查看轨道信息
半长轴: 6861.163km
偏心率: 0.0001768
轨道倾角: 43.001°
近地点辐角 279.154°
升交点赤经 304.493°
平近点角 80.912°
近地点: 481.812km
远地点: 484.24km
周期: 94.266分钟
每日圈数: 15.275879
Detailed Information
固有亮度:
5
最大亮度:
2.5
卫星平台:
Starlink V1.0
覆盖范围:
全球
运营商:
太空探索技术公司
运营商所在国:
美国
制造商(研发单位):
太空探索技术公司
制造商所在国:
美国
使用方式:
暂无
Satellite Introduction
Starlink 计划是 SpaceX 推出的全球卫星互联网项目,通过发射低轨道卫星,为全球尤其是偏远地区提供高速、低延迟的互联网服务。自 2019 年起,Starlink 已部署数千颗卫星,旨在缩小全球数字鸿沟,推动互联网普及。该项目还为军事、航空等行业提供通信支持,带来广泛经济效益。
2D Orbit Map
3D Orbit Map
Orbit Altitude Analysis Chart
Orbit Inclination Analysis Chart
Orbit Comprehensive Analysis Chart
View Comprehensive Chart
Conjunction Data List
Event ID Objects TCA Miss Dist (km) Collision Risk Probability Collision Risk Index (CRI) Action
CDM_260905-082706-203606-734921
2026-09-05T
08:27:49+0000
0.139 km
中距离
6.797233E-4 高风险 0.92
CDM_260901-084405-291306-734922
2026-09-01T
08:44:22+0000
0.464 km
远距离
2.020849E-4 高风险 0.81
CDM_260905-104906-203606-734921
2026-09-05T
10:49:02+0000
0.964 km
远距离
9.451498E-6 低风险 0.55
CDM_260901-133806-538206-734921
2026-09-01T
13:38:42+0000
2.595 km
极远距离
1.600882E-6 低风险 0.39
CDM_260905-122306-203606-734921
2026-09-05T
12:23:12+0000
2.976 km
极远距离
5.360922E-7 极低风险 0.3